Probability
0 0 0 0 0 0 0 0 0 0 0 0 0 0 0 0 0 0 0 0 0 0 0 0 0 0 0 3 3 13 6 16 52 94 90 87 94 97 90 90 77 58 29 23
0 0 0 0 0 0 0 0 0 0 0 0 0 0 0 0 0 0 0 0 0 0 0 0 0 3 3 13 16 23 13 13 45 94 100 100 94 97 97 97 100 77 26 23
0 0 0 0 0 0 0 0 0 0 0 0 0 0 0 0 0 0 0 0 0 0 0 0 0 3 6 13 13 32 55 52 55 74 100 100 100 100 97 94 90 81 48 29
0 0 0 0 0 0 0 0 0 0 0 0 0 0 0 0 0 0 0 0 0 0 0 0 0 0 3 3 6 19 55 77 74 71 90 97 94 77 81 71 74 71 48 32
0 0 0 0 0 0 0 0 0 0 0 0 0 0 0 0 0 0 0 0 0 0 0 0 0 0 3 3 3 13 39 65 77 94 90 94 71 58 55 45 35 23 19 19
0 0 0 0 0 0 0 0 0 0 0 0 0 0 0 0 0 0 0 0 0 0 0 0 0 0 0 0 0 3 13 26 42 74 77 71 39 23 16 16 13 10 6 10
0 0 0 0 0 0 0 0 0 0 0 0 0 0 0 0 0 0 0 0 0 0 0 0 0 0 0 0 0 0 3 3 3 32 48 29 23 16 13 10 0 0 0 0
0 0 0 0 0 0 0 0 0 0 0 0 0 0 0 0 0 0 0 0 0 0 0 0 0 0 0 0 0 0 0 0 0 0 3 6 6 3 3 0 0 0 0 0
0 0 0 0 0 0 0 0 0 0 0 0 0 0 0 0 0 0 0 0 0 0 0 0 0 0 0 0 0 0 0 0 0 0 0 0 0 0 0 0 0 0 0 0
0 0 0 0 0 0 0 0 0 0 0 0 0 0 0 0 0 0 0 0 0 0 0 0 0 0 0 0 0 0 0 0 0 0 0 0 0 0 0 0 0 0 0 0
0 0 0 0 0 0 0 0 0 0 0 0 0 0 0 0 0 0 0 0 0 0 0 0 0 0 0 0 0 0 0 0 0 0 0 0 0 0 0 0 0 0 0 0
0 0 0 0 0 0 0 0 0 0 0 0 0 0 0 0 0 0 0 0 0 0 0 0 0 0 0 0 0 0 0 0 0 0 0 0 0 0 0 0 0 0 0 0
0 0 0 0 0 0 0 0 0 0 0 0 0 0 0 0 0 0 0 0 0 0 0 0 0 0 0 0 0 0 0 0 0 0 0 0 0 0 0 0 0 0 0 0
0 0 0 0 0 0 0 0 0 0 0 0 0 0 0 0 0 0 0 0 0 0 0 0 0 0 0 0 0 0 0 0 0 0 0 0 0 0 0 0 0 0 0 0
0 0 0 0 0 0 0 0 0 0 0 0 0 0 0 0 0 0 0 0 0 0 0 0 0 0 0 0 0 0 0 0 0 0 0 0 0 0 0 0 0 0 0 0
0 0 0 0 0 0 0 0 0 0 0 0 0 0 0 0 0 0 0 0 0 0 0 0 0 0 0 0 0 0 0 0 0 0 0 0 0 0 0 0 0 0 0 0
0 0 0 0 0 0 0 0 0 0 0 0 0 0 0 0 0 0 0 0 0 0 0 0 0 0 0 0 0 0 0 0 0 0 0 0 0 0 0 0 0 0 0 0
0 0 0 0 0 0 0 0 0 0 0 0 0 0 0 0 0 0 0 0 0 0 0 0 0 0 0 0 0 0 0 0 0 0 0 0 0 0 0 0 0 0 0 0
0 0 0 0 0 0 0 0 0 0 0 0 0 0 0 0 0 0 0 0 0 0 0 0 0 0 0 0 0 0 0 0 0 0 0 0 0 0 0 0 0 0 0 0
0 0 0 0 0 0 0 0 0 0 0 0 0 0 0 0 0 0 0 0 0 0 0 0 0 0 0 0 0 0 0 0 0 0 0 0 0 0 0 0 0 0 0 0
0 0 0 0 0 0 0 0 0 0 0 0 0 0 0 0 0 0 0 0 0 0 0 0 0 0 0 0 0 0 0 0 0 0 0 0 0 0 0 0 0 0 0 0
0 0 0 0 0 0 0 0 0 0 0 0 0 0 0 0 0 0 0 0 0 0 0 0 0 0 0 0 0 0 0 0 0 0 0 0 0 0 0 0 0 0 0 0
0 0 0 0 0 0 0 0 0 0 0 0 0 0 0 0 0 0 0 0 0 0 0 0 0 0 0 0 0 0 0 0 0 0 0 0 0 0 0 0 0 0 0 0
0 0 0 0 0 0 0 0 0 0 0 0 0 0 0 0 0 0 0 0 0 0 0 0 0 0 0 0 0 0 0 0 0 0 0 0 0 0 0 0 0 0 0 0
0 0 0 0 0 0 0 0 0 0 0 0 0 0 0 0 0 0 0 0 0 0 0 0 0 0 0 0 0 0 0 0 0 0 0 0 0 0 0 0 0 0 0 0
0 0 0 0 0 0 0 0 0 0 0 0 0 0 0 0 0 0 0 0 0 0 0 0 0 0 0 0 0 0 0 0 0 0 0 0 0 0 0 0 0 0 0 0
Height
5879 5878 5876 5876 5874 5873 5872 5870 5869 5868 5865 5864 5862 5862 5859 5858 5860 5862 5862 5861 5861 5862 5864 5867 5868 5869 5871 5871 5872 5872 5872 5872 5874 5875 5876 5875 5874 5874 5875 5876 5877 5876 5876 5877
5874 5873 5872 5870 5868 5866 5864 5861 5859 5859 5857 5855 5854 5853 5851 5847 5848 5850 5851 5851 5851 5853 5854 5856 5858 5860 5861 5863 5864 5864 5864 5864 5865 5867 5868 5868 5868 5867 5868 5869 5869 5869 5869 5869
5869 5868 5866 5863 5860 5859 5856 5852 5849 5848 5847 5845 5843 5842 5842 5838 5836 5838 5839 5840 5841 5843 5844 5846 5848 5850 5851 5853 5855 5856 5856 5857 5858 5858 5859 5860 5858 5860 5861 5861 5861 5861 5862 5862
5867 5864 5861 5857 5854 5851 5849 5844 5841 5837 5834 5832 5832 5829 5833 5830 5826 5825 5827 5829 5831 5833 5834 5837 5839 5841 5843 5845 5847 5848 5849 5850 5851 5851 5851 5852 5852 5852 5852 5851 5851 5852 5853 5854
5863 5860 5857 5853 5850 5846 5842 5838 5833 5827 5821 5818 5819 5819 5822 5818 5815 5815 5817 5818 5820 5822 5825 5828 5831 5833 5835 5837 5839 5841 5842 5843 5844 5844 5844 5844 5844 5844 5843 5843 5841 5841 5843 5844
5860 5856 5853 5848 5844 5840 5836 5831 5825 5818 5812 5809 5809 5809 5809 5808 5807 5807 5807 5806 5808 5811 5815 5818 5821 5824 5827 5829 5832 5834 5835 5836 5836 5836 5836 5836 5835 5836 5835 5835 5833 5832 5833 5835
5857 5853 5848 5844 5840 5836 5831 5826 5819 5812 5807 5804 5802 5801 5800 5798 5797 5797 5796 5795 5797 5801 5805 5808 5812 5815 5818 5821 5824 5826 5827 5828 5828 5828 5827 5827 5827 5827 5826 5826 5824 5824 5826 5827
5854 5850 5846 5841 5837 5832 5826 5821 5816 5810 5805 5801 5798 5796 5794 5792 5790 5788 5787 5787 5789 5792 5795 5799 5802 5806 5809 5812 5814 5816 5818 5818 5818 5818 5817 5817 5818 5818 5818 5818 5817 5818 5820 5820
5854 5850 5845 5840 5835 5829 5823 5818 5814 5809 5804 5801 5798 5794 5791 5788 5784 5781 5779 5779 5780 5783 5787 5790 5793 5797 5800 5802 5804 5806 5807 5808 5808 5808 5808 5808 5809 5809 5810 5810 5811 5811 5812 5812
5854 5850 5845 5840 5834 5829 5823 5817 5813 5808 5804 5801 5798 5793 5790 5786 5781 5777 5773 5773 5775 5778 5781 5783 5787 5789 5792 5793 5795 5796 5796 5797 5798 5798 5799 5800 5801 5802 5802 5802 5803 5803 5803 5803
5854 5850 5845 5840 5834 5829 5824 5818 5813 5808 5804 5801 5797 5796 5789 5785 5781 5777 5773 5772 5773 5776 5778 5781 5783 5784 5785 5786 5787 5788 5788 5788 5789 5790 5791 5793 5794 5795 5796 5796 5796 5795 5795 5795
5854 5851 5845 5840 5835 5829 5824 5819 5814 5810 5806 5802 5798 5798 5790 5786 5782 5779 5777 5776 5776 5777 5778 5780 5781 5782 5783 5783 5783 5783 5783 5783 5783 5784 5785 5787 5788 5789 5790 5790 5790 5789 5789 5788
5855 5851 5845 5841 5838 5833 5827 5822 5817 5813 5809 5805 5801 5800 5793 5789 5787 5785 5783 5782 5781 5782 5782 5782 5782 5783 5783 5783 5782 5781 5781 5780 5780 5781 5782 5783 5784 5784 5785 5785 5785 5785 5784 5784
5856 5851 5848 5845 5840 5835 5830 5825 5820 5817 5813 5809 5805 5802 5799 5796 5793 5791 5790 5790 5789 5788 5788 5788 5788 5787 5786 5785 5784 5783 5782 5781 5780 5781 5781 5782 5782 5782 5782 5783 5782 5782 5782 5782
5858 5854 5850 5846 5842 5838 5833 5828 5825 5821 5817 5814 5810 5807 5805 5802 5800 5799 5797 5796 5795 5795 5794 5794 5793 5792 5791 5790 5788 5787 5786 5785 5784 5784 5783 5783 5783 5783 5783 5782 5782 5781 5781 5781
5860 5856 5852 5848 5845 5842 5837 5833 5829 5826 5823 5820 5817 5814 5811 5808 5806 5805 5804 5803 5802 5801 5800 5799 5798 5796 5795 5794 5792 5791 5790 5789 5789 5788 5787 5786 5786 5785 5784 5783 5782 5781 5780 5779
5863 5858 5854 5850 5848 5845 5841 5838 5835 5832 5829 5826 5823 5821 5817 5814 5813 5811 5810 5809 5807 5806 5804 5803 5802 5800 5799 5797 5796 5795 5793 5792 5792 5791 5790 5789 5788 5787 5785 5783 5782 5780 5778 5776
5867 5862 5857 5854 5851 5847 5848 5843 5840 5837 5834 5831 5828 5826 5823 5821 5819 5817 5815 5814 5812 5810 5809 5807 5806 5804 5802 5801 5799 5798 5796 5795 5794 5793 5792 5790 5789 5787 5785 5783 5781 5778 5776 5773
5871 5866 5861 5857 5853 5851 5850 5847 5844 5842 5839 5836 5834 5831 5829 5827 5824 5822 5820 5819 5817 5815 5812 5811 5809 5807 5805 5804 5802 5801 5799 5798 5797 5795 5793 5792 5790 5787 5785 5782 5779 5776 5773 5770
5876 5871 5867 5862 5858 5855 5854 5851 5848 5847 5844 5841 5838 5836 5834 5831 5829 5827 5825 5823 5820 5818 5816 5814 5812 5809 5808 5806 5805 5804 5802 5800 5799 5797 5795 5793 5790 5788 5785 5781 5778 5774 5770 5766
5881 5876 5871 5866 5863 5859 5857 5854 5852 5851 5849 5845 5843 5840 5838 5835 5834 5832 5829 5826 5824 5822 5819 5817 5815 5813 5811 5809 5808 5806 5805 5803 5801 5799 5797 5794 5791 5788 5784 5780 5776 5771 5766 5761
5884 5880 5876 5871 5867 5866 5861 5858 5856 5854 5850 5848 5846 5844 5842 5839 5837 5835 5833 5830 5828 5825 5823 5821 5818 5816 5815 5813 5811 5809 5807 5806 5803 5801 5798 5795 5792 5788 5784 5779 5773 5767 5761 5756
5886 5884 5880 5877 5875 5869 5865 5862 5860 5857 5854 5852 5849 5847 5845 5843 5841 5839 5837 5834 5832 5829 5827 5824 5822 5820 5818 5816 5814 5812 5810 5808 5806 5803 5800 5797 5793 5789 5784 5779 5772 5766 5759 5752
5888 5885 5883 5880 5877 5873 5869 5866 5863 5860 5857 5855 5852 5850 5847 5845 5844 5842 5840 5838 5835 5833 5830 5828 5826 5824 5821 5819 5817 5815 5813 5810 5807 5805 5802 5798 5795 5790 5786 5780 5774 5767 5760 5754
5887 5886 5884 5882 5880 5876 5873 5870 5866 5863 5860 5857 5855 5852 5850 5848 5845 5843 5841 5839 5837 5835 5833 5831 5829 5826 5824 5822 5820 5817 5814 5812 5809 5807 5804 5800 5797 5793 5788 5783 5777 5771 5765 5758
5886 5886 5885 5883 5881 5879 5876 5873 5870 5866 5863 5860 5857 5854 5852 5849 5847 5845 5843 5841 5839 5837 5835 5833 5831 5829 5827 5825 5822 5820 5817 5814 5812 5809 5806 5803 5799 5796 5791 5786 5781 5775 5770 5764
Wind_Speed
21 24 27 27 28 30 31 32 34 35 38 42 44 44 45 45 43 42 42 44 44 45 44 42 40 40 39 39 38 37 37 36 34 32 31 31 31 30 29 28 28 28 29 29
23 25 25 25 29 31 32 34 36 38 40 43 45 45 43 44 43 42 41 41 42 42 42 40 39 39 38 37 36 36 35 35 34 32 32 33 34 34 32 31 30 29 30 30
24 26 27 28 30 30 30 34 37 39 40 42 43 44 43 42 43 43 41 39 39 38 37 36 35 35 34 32 31 30 30 30 30 31 31 34 35 34 33 32 32 31 31 32
21 21 21 22 23 24 25 28 31 34 38 39 39 42 37 34 40 42 41 39 36 34 33 31 31 31 30 29 28 26 25 25 26 28 30 33 35 36 36 37 38 34 33 34
15 16 17 19 20 22 24 28 31 34 34 33 32 33 32 35 40 41 39 38 38 36 33 30 29 29 29 29 28 26 26 25 26 28 30 31 34 37 39 42 42 39 37 38
16 18 20 22 23 25 27 29 31 30 26 23 21 24 29 35 39 40 37 37 37 36 34 32 31 30 30 30 30 30 29 28 29 30 32 33 34 38 41 43 43 41 39 40
19 18 19 21 22 24 26 27 27 24 19 16 16 19 26 31 37 40 40 39 37 36 35 33 33 33 33 33 33 33 33 32 33 34 34 34 35 37 41 43 43 39 39 40
21 21 20 19 21 23 23 22 23 20 15 13 14 17 19 23 29 35 40 43 41 38 37 35 35 34 34 34 35 36 36 36 36 36 36 34 33 34 37 38 39 39 38 38
19 18 18 18 20 22 22 21 20 18 14 13 14 15 18 21 24 26 30 34 36 36 34 33 33 33 33 34 35 36 37 38 37 36 34 32 31 31 32 33 35 36 36 35
18 17 18 20 22 22 23 21 19 17 14 12 12 14 15 14 16 16 18 21 22 22 22 23 23 25 28 30 33 35 35 35 34 32 30 29 28 28 28 27 29 31 33 34
19 19 19 21 22 22 23 22 20 17 15 14 14 15 16 13 12 10 6 5 9 9 10 10 12 14 16 19 23 25 27 28 28 27 25 24 24 25 25 26 28 29 30 31
20 19 20 22 23 23 23 22 21 18 16 16 16 17 16 12 11 9 8 8 7 6 5 4 3 5 7 9 11 13 16 17 19 19 19 19 20 21 22 24 24 24 23 21
20 21 23 24 25 24 22 21 22 21 20 19 19 20 18 15 13 14 16 17 17 17 17 14 12 9 5 2 3 4 6 8 10 10 11 13 14 15 15 14 13 13 12 13
20 21 22 22 22 20 20 22 24 23 21 20 21 20 19 18 17 16 17 19 20 21 20 20 20 19 17 15 12 9 8 7 5 4 2 2 2 2 3 3 4 5 6 8
21 21 20 20 21 21 22 24 26 25 24 22 22 22 20 19 18 18 19 20 20 20 20 19 19 18 18 17 17 17 16 15 14 13 11 9 8 6 6 7 8 10 11 12
23 21 20 21 21 21 24 25 26 27 26 25 24 24 23 22 21 20 20 21 21 20 19 17 16 16 15 15 14 13 12 12 11 10 9 9 8 8 9 10 11 13 14 15
26 23 22 21 19 20 24 24 25 25 25 25 25 24 24 23 23 23 23 22 22 21 20 19 18 17 16 15 13 12 11 10 9 8 7 7 8 8 9 11 12 14 15 17
30 26 23 21 21 22 21 21 22 23 23 23 23 22 22 21 21 22 22 21 21 21 20 20 18 17 16 15 13 12 12 11 10 10 9 9 9 10 10 11 12 13 14 16
31 29 26 23 20 18 17 17 18 19 20 21 20 19 18 18 20 21 21 20 20 19 19 19 17 16 15 14 14 13 13 12 12 12 12 12 12 12 12 13 13 13 14 15
30 29 28 26 22 18 17 16 16 16 17 18 18 17 17 18 20 20 20 19 18 18 18 17 16 15 15 14 14 14 14 15 15 15 15 15 15 15 15 15 15 15 16 16
27 28 27 27 24 20 17 16 15 14 16 16 16 16 16 17 17 18 19 19 18 18 18 17 16 16 15 15 15 15 16 16 16 16 16 17 17 18 19 19 20 20 20 19
23 25 26 26 25 21 19 17 16 16 15 15 15 14 15 15 16 17 18 18 18 18 18 17 16 16 15 15 15 16 16 16 16 17 17 19 20 21 23 24 24 25 24 22
18 20 23 24 24 24 21 18 17 16 16 16 15 14 14 14 15 15 16 17 18 18 17 16 16 15 15 15 15 15 15 15 16 17 18 20 22 24 25 26 27 28 26 23
13 15 17 19 21 22 21 19 17 16 16 16 16 15 13 13 13 14 15 15 16 16 16 15 15 14 15 14 14 14 14 15 16 17 18 20 22 24 26 27 28 29 27 25
10 11 12 14 16 18 19 19 18 17 16 15 15 15 14 13 13 14 14 15 15 15 15 14 14 14 14 14 15 15 14 15 16 17 18 19 21 24 26 27 28 29 28 27
9 9 9 11 12 13 15 16 17 17 16 15 15 15 14 14 14 14 14 14 14 13 13 12 12 13 13 14 15 15 15 15 15 16 17 18 20 22 25 26 27 28 28 28
Wind_Direction
278 277 279 285 285 284 282 279 275 273 270 269 274 279 279 278 275 272 271 270 270 269 270 270 270 270 271 272 275 276 277 278 277 276 275 274 274 272 269 268 269 272 274 274
288 287 292 292 289 288 286 282 278 274 273 273 274 276 278 278 274 272 271 270 269 269 269 269 268 268 268 268 269 270 271 272 274 273 272 271 271 271 270 270 271 274 274 275
297 300 300 296 292 291 289 286 284 283 280 277 275 272 275 277 276 275 272 271 269 268 266 265 264 263 263 262 262 263 266 270 273 274 271 270 269 269 270 271 273 274 276 277
301 305 304 303 302 304 303 301 300 295 288 279 272 270 270 271 270 271 271 270 268 266 264 262 260 257 255 254 254 256 261 269 274 277 276 272 271 270 268 269 271 272 275 278
328 326 321 315 311 313 314 313 310 305 295 284 272 266 261 255 258 262 265 264 263 262 261 258 254 251 249 248 249 252 260 269 276 281 283 279 273 270 268 268 267 267 272 276
330 324 318 315 312 312 315 317 317 317 311 293 276 261 253 249 251 255 256 260 260 259 256 253 250 249 248 248 249 254 260 268 276 282 285 282 275 270 268 267 267 267 270 272
341 337 330 329 325 322 320 323 326 329 323 303 285 264 257 254 252 252 253 256 256 256 255 251 248 248 249 251 253 257 262 269 275 280 283 281 276 271 267 268 268 270 273 277
348 349 347 343 338 335 336 335 338 338 331 320 301 280 271 267 263 260 258 260 261 260 257 253 249 249 250 253 256 259 263 269 274 277 279 277 272 269 267 269 270 274 279 281
357 358 357 355 354 353 353 352 349 346 337 329 325 305 289 289 287 279 267 262 261 262 259 255 252 252 253 256 259 262 264 267 270 273 273 270 266 265 266 267 269 272 277 278
4 8 8 5 5 3 3 1 356 353 352 346 331 325 326 319 314 299 280 263 256 255 251 249 251 254 257 258 261 263 265 266 267 268 266 261 258 259 263 266 266 269 273 275
9 11 14 14 12 9 10 10 7 4 2 0 357 352 349 349 352 353 337 248 232 234 236 239 250 256 259 260 262 264 265 266 265 263 262 258 254 255 259 264 266 267 268 268
13 13 21 19 15 16 17 20 23 22 21 20 18 14 9 13 18 32 50 77 89 97 103 128 185 223 244 255 259 262 265 267 266 263 260 256 255 257 261 264 264 263 260 257
12 15 19 19 19 19 22 32 37 38 38 38 35 33 32 39 55 68 71 75 77 77 77 81 84 92 105 144 203 229 252 258 255 252 248 248 250 251 252 252 251 249 246 244
18 22 22 21 22 24 34 41 41 39 38 41 44 46 47 56 69 73 74 71 70 71 71 73 72 70 71 70 73 83 85 83 92 102 132 178 188 204 226 246 258 273 282 281
23 26 24 29 33 37 45 47 46 45 45 46 47 48 54 61 69 70 68 66 65 65 65 68 69 65 62 59 57 57 58 58 58 57 55 48 38 20 357 339 326 318 312 304
27 27 27 33 37 41 49 49 50 51 50 51 52 55 58 60 63 65 63 62 63 63 64 65 62 60 58 56 54 53 52 49 46 40 32 22 11 357 345 333 324 319 314 308
28 28 29 34 35 40 47 48 52 53 52 52 53 56 58 60 63 65 63 61 60 59 57 55 54 54 53 52 53 53 52 49 44 36 25 14 2 353 344 336 328 321 315 310
31 33 34 34 34 38 42 45 50 52 54 53 52 55 57 61 64 65 62 56 52 50 49 48 49 50 51 52 54 54 52 50 46 42 37 30 20 9 358 348 339 330 323 317
31 33 34 35 37 39 39 42 45 48 51 51 50 53 58 58 59 58 54 49 45 43 43 42 41 43 45 47 49 50 51 51 49 44 37 29 21 13 5 358 349 340 332 324
31 32 33 34 37 39 39 39 39 40 47 47 48 51 55 55 54 51 46 43 42 41 38 36 37 39 42 45 46 47 47 45 42 37 32 28 24 19 11 3 355 346 337 329
30 32 33 35 37 40 40 40 38 37 39 41 44 46 46 46 45 42 40 41 42 41 39 39 40 42 43 45 46 46 44 43 41 39 36 31 24 16 9 3 357 350 342 334
30 32 34 35 37 38 39 39 38 36 33 33 33 34 36 36 35 33 33 35 36 37 38 39 40 42 43 44 43 42 41 38 36 32 28 24 18 14 10 6 2 356 349 342
26 30 33 34 36 37 37 37 35 32 30 28 26 25 25 25 24 23 22 24 27 31 34 36 38 39 40 41 40 38 36 32 27 24 22 19 17 15 13 11 9 6 2 357
13 21 26 29 31 33 34 33 30 26 23 22 22 21 17 13 10 10 12 14 17 22 27 29 31 33 34 34 32 29 27 23 20 18 18 18 18 18 17 16 15 16 17 18
356 6 14 19 24 27 30 30 28 24 18 14 12 12 9 4 359 358 0 4 6 11 16 20 23 24 25 25 24 22 21 18 17 17 18 19 20 21 21 20 21 23 27 31
326 339 350 1 9 16 21 26 28 28 23 15 8 3 0 356 351 349 349 352 356 360 6 11 14 17 19 20 20 19 18 18 18 19 19 20 21 23 24 24 25 28 33 37